RH
26 30 34 40 43 36 35 32 30 29 27 24 18 12 9 9 11 12 10 10 11 13 15 15 16 13 12 12 13 14 15 15 16 14 13 13 14 17 19 19 19 24 30 28 24 18 22 27 40
34 34 36 37 42 32 32 29 29 27 26 22 19 16 10 8 11 12 12 12 14 14 14 12 11 10 12 14 16 16 17 19 19 17 17 16 15 19 22 23 23 25 30 34 31 22 21 24 32
34 36 37 38 41 40 33 28 26 24 23 21 21 19 17 10 11 13 13 14 15 14 12 10 9 11 14 16 18 20 19 19 20 23 27 30 26 21 24 23 28 29 31 37 37 29 24 22 29
33 36 38 39 39 36 29 27 26 25 22 22 21 21 19 15 13 16 16 15 14 13 11 10 11 14 16 19 21 20 21 31 40 47 48 50 46 36 32 29 32 31 34 34 43 38 26 25 24
38 38 40 39 37 29 28 24 24 23 23 22 21 22 18 15 15 16 16 16 16 13 11 11 14 17 16 17 16 24 37 45 54 60 63 63 68 48 37 34 32 34 35 37 38 47 32 24 24
38 38 44 45 39 30 26 23 23 22 21 22 21 17 16 15 15 17 16 17 16 12 11 13 15 15 18 20 23 39 46 47 53 59 65 66 76 69 55 53 42 42 37 38 38 45 43 24 24
39 38 42 42 38 29 25 22 22 22 21 20 17 16 15 15 16 16 16 16 13 12 12 14 15 15 16 26 40 45 46 45 45 50 57 57 71 73 77 78 73 59 41 35 41 43 52 32 24
38 36 37 39 35 29 24 23 25 24 21 17 17 16 15 14 15 16 17 13 14 12 12 13 14 17 29 41 47 46 43 43 43 47 52 55 58 73 77 75 79 69 48 35 43 46 50 43 28
37 34 38 41 34 29 25 25 26 25 23 17 16 14 14 15 16 16 14 16 14 10 10 13 19 32 42 49 46 40 39 40 43 46 48 51 53 57 60 72 77 75 58 39 46 47 49 46 33
41 36 37 38 39 31 27 27 27 28 23 16 15 13 15 16 17 14 16 15 10 9 12 14 24 43 52 43 38 35 37 43 47 48 51 51 54 56 55 60 69 79 64 49 50 52 54 48 40
38 34 37 35 36 37 31 28 27 28 18 14 12 14 16 18 16 16 17 14 10 12 13 21 34 51 43 35 35 37 45 46 46 49 55 60 61 63 65 61 61 78 64 62 49 56 58 54 42
38 37 36 36 35 30 28 28 30 24 13 15 16 16 17 18 17 18 18 16 13 13 17 25 46 43 36 34 45 48 43 46 50 52 56 60 64 64 72 80 79 72 72 64 59 66 62 56 44
38 34 34 34 29 26 29 29 28 19 20 19 17 18 18 18 17 17 20 19 13 12 16 37 42 35 32 40 51 59 43 43 44 49 53 62 70 74 78 81 79 77 73 67 67 71 67 59 50
39 35 31 29 28 29 30 31 28 21 22 20 19 19 18 20 20 18 21 20 14 14 24 47 42 33 34 46 52 56 52 42 44 43 50 61 70 74 74 72 71 72 77 74 79 70 67 64 53
36 32 34 36 31 29 31 28 25 27 26 20 20 20 22 25 28 20 22 21 14 18 32 48 42 38 38 51 52 51 51 47 39 42 45 59 69 80 77 72 67 73 77 76 74 71 66 65 54
37 37 37 31 30 32 27 24 28 28 25 21 20 24 25 26 30 24 23 22 13 21 33 46 44 39 41 53 59 59 55 52 50 49 51 70 70 81 87 71 66 66 61 59 63 61 59 60 49
45 40 37 32 31 31 27 27 29 28 25 24 22 28 28 28 32 30 24 21 14 20 30 41 44 39 39 52 57 65 62 63 62 67 73 71 80 75 72 70 69 65 61 62 62 60 59 62 43
40 36 32 31 29 29 29 29 29 29 27 27 29 30 34 30 33 32 24 19 13 17 29 41 40 39 33 48 53 65 75 76 73 78 84 77 78 80 70 65 64 63 65 63 66 67 64 60 43
39 35 34 32 27 26 29 31 27 27 26 29 30 36 36 37 34 34 25 18 15 16 27 43 37 39 38 46 52 61 73 79 80 86 93 93 91 85 84 76 71 75 80 73 75 70 67 47 57
35 33 34 26 22 25 30 29 26 27 26 27 32 36 40 39 39 37 25 17 16 16 25 45 34 39 43 48 67 84 88 90 85 88 94 96 97 93 92 86 81 83 86 83 75 68 60 52 74
29 29 26 25 26 24 27 29 24 26 25 27 31 31 38 40 40 41 25 16 17 18 20 45 33 38 43 52 74 88 93 87 83 86 94 92 95 99 96 94 91 94 94 82 81 73 63 57 76
29 26 28 31 31 31 29 34 26 24 24 29 29 28 36 39 42 41 26 16 16 19 21 42 35 37 43 61 77 83 88 87 81 83 86 84 87 93 97 97 95 98 98 88 77 77 73 68 75
29 29 31 32 32 29 30 35 28 26 26 28 29 33 41 38 41 42 23 16 16 19 26 38 39 38 47 69 81 87 88 89 86 83 84 83 87 84 86 86 89 91 93 95 86 99 93 88 74
28 30 34 35 33 35 29 30 28 23 25 24 37 40 42 38 39 39 20 17 18 20 25 33 38 36 42 56 73 71 75 85 85 86 86 86 87 90 91 83 84 88 89 89 89 87 81 83 82
31 35 39 41 40 39 30 32 29 23 23 33 43 47 41 36 36 33 19 16 18 20 21 34 39 31 40 48 55 61 73 79 85 88 91 93 91 91 91 89 87 88 87 84 86 78 74 77 90
33 37 43 37 36 28 30 31 28 24 28 36 45 46 42 29 33 30 19 16 19 20 20 30 44 30 38 42 52 59 68 73 77 89 90 95 90 88 92 88 93 90 86 87 88 93 94 92 98
35 37 34 38 37 34 31 28 29 29 40 43 47 46 37 29 30 28 19 16 19 21 20 24 31 43 34 38 42 46 57 66 67 74 85 95 90 88 90 89 90 91 90 90 91 95 94 94 93
34 36 39 44 40 36 33 33 37 35 40 47 49 49 36 28 30 27 18 15 19 21 21 22 25 29 42 36 37 41 46 53 56 60 74 83 82 78 82 81 82 82 88 90 87 90 93 91 87
36 38 41 38 42 42 44 36 34 34 41 47 52 47 35 27 27 24 17 14 19 21 20 22 23 22 31 35 37 36 35 37 47 56 58 65 72 71 71 72 72 74 79 84 82 84 86 84 81
30 35 41 45 43 49 40 31 36 41 45 51 56 51 33 31 27 23 16 14 18 20 20 21 22 22 27 27 23 25 31 37 41 51 39 53 63 69 71 69 70 73 71 73 77 73 66 66 58